Baltimore Martin, MD

2:41 PM EDT on July 24, 2017 (GMT -0400)
Martin State

Weather History for KMTN - January, 2013

Change the Weather History Date:

Wednesday, January 9, 2013

  Actual Average Record
Temperature  
Mean Temperature 39 °F -  
Max Temperature 48 °F 40 °F 64 °F (2003)
Min Temperature 30 °F 27 °F 17 °F (2017)
Degree Days  
Heating Degree Days 26    
Moisture  
Dew Point 34 °F    
Average Humidity 89    
Maximum Humidity 100    
Minimum Humidity 62    
Precipitation  
Precipitation 0.00 in - - ()
Sea Level Pressure  
Sea Level Pressure 30.36 in    
Wind  
Wind Speed 1 mph (SSW)    
Max Wind Speed 7 mph    
Max Gust Speed -    
Visibility 7 miles    
Events      
Averages and records for this station are not official NWS values.
T = Trace of Precipitation, MM = Missing Value Source: NWS Daily Summary

Daily Weather History Graph

Daily Weather History Graph

Search for Another Location

Airport or City:

Trip Planner

Search our weather history database for the weather conditions in past years. The results will help you decide how hot, cold, wet, or windy it might be!

Date:

Astronomy

Jan. 09, 2013 Rise Set
Actual Time 7:25 AM EST 5:00 PM EST
Civil Twilight 6:55 AM EST 5:30 PM EST
Nautical Twilight 6:22 AM EST 6:03 PM EST
Astronomical Twilight 5:50 AM EST 6:36 PM EST
Moon 5:02 AM EST (1/9) 3:00 PM EST (1/9)
Length of Visible Light 10h 34m
Length of Day
9h 35m
Waning Crescent, 6% of the Moon is Illuminated
Jan 9
Waning Crescent
Jan 11
New
Jan 18
First Quarter
Jan 26
Full
Feb 3
Last Quarter

Hourly Weather History & Observations

Time (EST) Temp. Windchill Dew Point Humidity Pressure Visibility Wind Dir Wind Speed Gust Speed Precip Events Conditions
12:00 AM 32.0 °F - 32.0 °F 100% 30.41 in 5.0 mi Calm Calm - N/A   Clear
12:21 AM 32.0 °F - 32.0 °F 100% 30.40 in 5.0 mi Calm Calm - N/A   Clear
12:45 AM 32.0 °F - 32.0 °F 100% 30.40 in 5.0 mi Calm Calm - N/A   Clear
1:06 AM 32.0 °F - 32.0 °F 100% 30.41 in 10.0 mi Calm Calm - N/A   Clear
1:27 AM 32.0 °F - 32.0 °F 100% 30.40 in 5.0 mi Calm Calm - N/A   Clear
1:48 AM 32.0 °F - 32.0 °F 100% 30.39 in 5.0 mi Calm Calm - N/A   Clear
2:09 AM 32.0 °F - 30.2 °F 93% 30.39 in 5.0 mi Calm Calm - N/A   Clear
2:51 AM 30.2 °F - 30.2 °F 100% 30.38 in 4.0 mi Calm Calm - N/A   Clear
3:12 AM 30.2 °F - 30.2 °F 100% 30.39 in 5.0 mi Calm Calm - N/A   Clear
3:33 AM 30.2 °F - 30.2 °F 100% 30.39 in 5.0 mi Calm Calm - N/A   Clear
3:57 AM 30.2 °F - 30.2 °F 100% 30.40 in 5.0 mi Calm Calm - N/A   Clear
4:18 AM 30.2 °F - 30.2 °F 100% 30.39 in 5.0 mi Calm Calm - N/A   Clear
4:39 AM 30.2 °F - 30.2 °F 100% 30.38 in 5.0 mi Calm Calm - N/A   Clear
5:00 AM 30.2 °F - 30.2 °F 100% 30.38 in 4.0 mi Calm Calm - N/A   Clear
5:21 AM 30.2 °F - 30.2 °F 100% 30.37 in 5.0 mi Calm Calm - N/A   Clear
5:30 AM 30.2 °F - 30.2 °F 100% 30.37 in 7.0 mi Calm Calm - N/A   Clear
5:54 AM 30.2 °F - 30.2 °F 100% 30.37 in 5.0 mi Calm Calm - N/A   Scattered Clouds
6:54 AM 30.2 °F - 30.2 °F 100% 30.38 in 5.0 mi Calm Calm - N/A   Scattered Clouds
7:55 AM 32.0 °F - 32.0 °F 100% 30.40 in 5.0 mi Calm Calm - N/A   Scattered Clouds
8:50 AM 35.6 °F - 33.8 °F 93% 30.40 in 5.0 mi Calm Calm - N/A   Scattered Clouds
10:50 AM 41.0 °F - 37.4 °F 87% 30.37 in 7.0 mi Calm Calm - N/A   Mostly Cloudy
11:45 AM 46.4 °F - 37.4 °F 71% 30.34 in 10.0 mi Calm Calm - N/A   Overcast
12:45 PM 46.4 °F 44.3 °F 37.4 °F 71% 30.32 in 10.0 mi SSW 4.6 mph - N/A   Overcast
1:45 PM 48.2 °F - 37.4 °F 66% 30.31 in 7.0 mi Calm Calm - N/A   Overcast
2:45 PM 48.2 °F - 39.2 °F 71% 30.28 in 5.0 mi South 6.9 mph - N/A   Light Drizzle
3:50 PM 46.4 °F 43.5 °F 39.2 °F 76% 30.25 in 7.0 mi South 5.8 mph - N/A   Overcast
4:50 PM 48.2 °F - 41.0 °F 76% 30.24 in 7.0 mi SW 5.8 mph - N/A   Mostly Cloudy
5:45 PM 48.2 °F - 41.0 °F 76% 30.25 in 7.0 mi Calm Calm - N/A   Mostly Cloudy
6:45 PM 41.0 °F - 37.4 °F 87% 30.29 in 10.0 mi Calm Calm - N/A   Mostly Cloudy
9:45 PM 48.2 °F - 39.2 °F 71% 30.34 in 10.0 mi WSW 4.6 mph - N/A   Mostly Cloudy
10:21 PM 46.4 °F 44.3 °F 39.2 °F 76% 30.34 in 10.0 mi SSW 4.6 mph - N/A   Clear
11:03 PM 44.6 °F 42.2 °F 37.4 °F 76% 30.35 in 10.0 mi SSW 4.6 mph - N/A   Clear
11:24 PM 46.4 °F 43.5 °F 37.4 °F 71% 30.36 in 10.0 mi SW 5.8 mph - N/A   Clear
11:48 PM 48.2 °F - 35.6 °F 62% 30.36 in 10.0 mi SW 6.9 mph - N/A   Clear